Weather History for Owensboro, KY

Change the Weather History Date:

Sunday, May 12, 2013

  Actual Average Record
Temperature  
Mean Temperature 53 °F -  
Max Temperature 61 °F 76 °F 89 °F (1935)
Min Temperature 45 °F 55 °F 38 °F (1940)
Degree Days  
Heating Degree Days 12    
Growing Degree Days 3 (Base 50)    
Moisture  
Dew Point 38 °F    
Average Humidity 54    
Maximum Humidity 86    
Minimum Humidity 32    
Precipitation  
Precipitation 0.00 in - - ()
Sea Level Pressure  
Sea Level Pressure 30.16 in    
Wind  
Wind Speed 6 mph (NW)    
Max Wind Speed 13 mph    
Max Gust Speed 21 mph    
Visibility 10 miles    
Events      
Averages and records for this station are not official NWS values.
T = Trace of Precipitation, MM = Missing Value Source: NWS Daily Summary

Daily Weather History Graph

Daily Weather History Graph

Search for Another Location

Airport:

Trip Planner

Search our weather history database for the weather conditions in past years. The results will help you decide how hot, cold, wet, or windy it might be!

Date:

Astronomy

May. 12, 2013 Rise Set
Actual Time 5:41 AM CDT 7:49 PM CDT
Civil Twilight 5:12 AM CDT 8:18 PM CDT
Nautical Twilight 4:36 AM CDT 8:54 PM CDT
Astronomical Twilight 3:57 AM CDT 9:33 PM CDT
Moon 7:36 AM CDT (5/12) 10:15 PM CDT (5/12)
Length of Visible Light 15h 06m
Length of Day
14h 07m
Waxing Crescent, 7% of the Moon is Illuminated
May 12
Waxing Crescent
May 17
First Quarter
May 24
Full
May 31
Last Quarter
Jun 8
New

Hourly Weather History & Observations

Time (CDT) Temp. Windchill Dew Point Humidity Pressure Visibility Wind Dir Wind Speed Gust Speed Precip Events Conditions
12:56 AM 52.0 °F - 37.9 °F 59% 30.12 in 10.0 mi NNW 4.6 mph - N/A   Clear
1:56 AM 50.9 °F - 43.0 °F 74% 30.12 in 10.0 mi WNW 3.5 mph - N/A   Clear
2:56 AM 48.9 °F - 39.9 °F 71% 30.11 in 10.0 mi Calm Calm - N/A   Clear
3:56 AM 46.9 °F - 38.8 °F 73% 30.12 in 10.0 mi Calm Calm - N/A   Clear
4:56 AM 48.9 °F - 45.0 °F 86% 30.12 in 10.0 mi West 3.5 mph - N/A   Clear
5:56 AM 45.0 °F 42.6 °F 41.0 °F 86% 30.14 in 10.0 mi West 4.6 mph - N/A   Clear
6:56 AM 50.0 °F - 41.9 °F 74% 30.16 in 10.0 mi WNW 6.9 mph - N/A   Clear
7:56 AM 52.9 °F - 39.9 °F 61% 30.16 in 10.0 mi NW 12.7 mph - N/A   Clear
8:56 AM 57.9 °F - 38.8 °F 49% 30.18 in 10.0 mi NNW 10.4 mph - N/A   Clear
9:56 AM 55.9 °F - 32.0 °F 40% 30.19 in 10.0 mi NNW 11.5 mph - N/A   Clear
10:56 AM 55.9 °F - 31.1 °F 39% 30.20 in 10.0 mi NW 11.5 mph - N/A   Clear
11:56 AM 57.9 °F - 31.1 °F 36% 30.19 in 10.0 mi NW 9.2 mph 20.7 mph N/A   Clear
12:56 PM 59.0 °F - 32.0 °F 36% 30.19 in 10.0 mi NW 10.4 mph 18.4 mph N/A   Partly Cloudy
1:56 PM 59.9 °F - 32.0 °F 35% 30.18 in 10.0 mi NW 11.5 mph 20.7 mph N/A   Partly Cloudy
2:56 PM 59.9 °F - 30.0 °F 32% 30.17 in 10.0 mi NNW 11.5 mph 19.6 mph N/A   Scattered Clouds
3:56 PM 59.9 °F - 32.0 °F 35% 30.16 in 10.0 mi NNW 12.7 mph 19.6 mph N/A   Partly Cloudy
4:56 PM 61.0 °F - 32.0 °F 34% 30.15 in 10.0 mi NW 11.5 mph 16.1 mph N/A   Partly Cloudy
5:56 PM 61.0 °F - 32.0 °F 34% 30.15 in 10.0 mi NW 11.5 mph - N/A   Scattered Clouds
6:56 PM 59.0 °F - 36.0 °F 42% 30.15 in 10.0 mi West 8.1 mph - N/A   Partly Cloudy
7:56 PM 56.8 °F - 37.9 °F 49% 30.15 in 10.0 mi WNW 4.6 mph - N/A   Clear
8:56 PM 55.9 °F - 37.9 °F 51% 30.17 in 10.0 mi Calm Calm - N/A   Clear
9:56 PM 61.0 °F - 48.9 °F 64% 30.19 in 10.0 mi Calm Calm - N/A   Clear
10:56 PM 52.9 °F - 43.0 °F 69% 30.19 in 10.0 mi Calm Calm - N/A   Clear
11:56 PM 55.9 °F - 47.8 °F 74% 30.18 in 10.0 mi Calm Calm - N/A   Clear